EZY414 EGKK-EGCC

Flight info

Callsign EZY414
Flight time 0h 44m
Altitude 24000
Route LAM N57 WELIN T420 TNT DCT QUSHI DCT DAYNE
Aircraft A20N/M-SDE2E3FGHIRWXY/LB1

Departure

Time 2026-04-16 11:05
Airport London Gatwick Airport (EGKK)

Arrival

Time 2026-04-16 11:49
Airport Manchester Airport (EGCC)
Time Latitude Longitude Altitude Speed Heading
2026-04-16 10:46 51.15585 -0.17681 214 ft 0 kts 348°
2026-04-16 10:57 51.15573 -0.17678 211 ft 3 kts 353°
2026-04-16 10:57 51.15550 -0.17676 206 ft 3 kts
2026-04-16 10:57 51.15533 -0.17682 212 ft 2 kts 28°
2026-04-16 10:58 51.15521 -0.17696 207 ft 2 kts 51°
2026-04-16 10:58 51.15512 -0.17719 210 ft 3 kts 68°
2026-04-16 10:58 51.15507 -0.17743 209 ft 2 kts 75°
2026-04-16 10:58 51.15504 -0.17759 208 ft 2 kts 77°
2026-04-16 10:59 51.15502 -0.17776 211 ft 2 kts 78°
2026-04-16 10:59 51.15501 -0.17777 211 ft 0 kts 78°
2026-04-16 11:01 51.15506 -0.17743 211 ft 7 kts 78°
2026-04-16 11:01 51.15520 -0.17639 214 ft 12 kts 78°
2026-04-16 11:02 51.15539 -0.17494 203 ft 13 kts 83°
2026-04-16 11:02 51.15490 -0.17420 203 ft 11 kts 160°
2026-04-16 11:02 51.15421 -0.17392 205 ft 11 kts 168°
2026-04-16 11:02 51.15336 -0.17364 205 ft 13 kts 168°
2026-04-16 11:03 51.15250 -0.17314 209 ft 14 kts 133°
2026-04-16 11:03 51.15255 -0.17170 206 ft 15 kts 76°
2026-04-16 11:03 51.15283 -0.16843 207 ft 9 kts 125°
2026-04-16 11:04 51.15217 -0.16802 211 ft 12 kts 174°
2026-04-16 11:04 51.15138 -0.16809 207 ft 9 kts 234°
2026-04-16 11:04 51.15105 -0.16934 205 ft 27 kts 256°
2026-04-16 11:04 51.15006 -0.17637 210 ft 105 kts 257°
2026-04-16 11:05 51.14803 -0.19103 374 ft 154 kts 256°
2026-04-16 11:05 51.14578 -0.20802 1174 ft 158 kts 255°
2026-04-16 11:05 51.14334 -0.22555 1913 ft 173 kts 256°
2026-04-16 11:05 51.14045 -0.24531 2549 ft 193 kts 256°
2026-04-16 11:06 51.13737 -0.26710 3269 ft 208 kts 256°
2026-04-16 11:06 51.13633 -0.29043 3677 ft 217 kts 280°
2026-04-16 11:06 51.14317 -0.31197 3835 ft 221 kts 311°
2026-04-16 11:06 51.15653 -0.32422 3928 ft 231 kts 344°
2026-04-16 11:07 51.17290 -0.32334 3992 ft 242 kts 15°
2026-04-16 11:07 51.18705 -0.30898 4001 ft 248 kts 48°
2026-04-16 11:07 51.19561 -0.28501 4005 ft 251 kts 70°
2026-04-16 11:07 51.20006 -0.25834 3998 ft 248 kts 79°
2026-04-16 11:08 51.20303 -0.23124 3997 ft 246 kts 82°
2026-04-16 11:08 51.20577 -0.20416 4004 ft 249 kts 82°
2026-04-16 11:08 51.20893 -0.17517 3995 ft 278 kts 80°
2026-04-16 11:08 51.21261 -0.14473 3985 ft 280 kts 79°
2026-04-16 11:09 51.21647 -0.11402 4026 ft 283 kts 79°
2026-04-16 11:09 51.22035 -0.08308 4512 ft 287 kts 79°
2026-04-16 11:09 51.22431 -0.05167 4661 ft 286 kts 79°
2026-04-16 11:09 51.22818 -0.02099 4756 ft 281 kts 79°
2026-04-16 11:10 51.23205 0.00978 4713 ft 285 kts 79°
2026-04-16 11:10 51.23594 0.04082 4796 ft 284 kts 79°
2026-04-16 11:10 51.23979 0.07172 4781 ft 285 kts 79°
2026-04-16 11:10 51.24367 0.10284 4755 ft 288 kts 79°
2026-04-16 11:11 51.24757 0.13424 4728 ft 287 kts 79°
2026-04-16 11:11 51.25141 0.16516 4702 ft 284 kts 79°
2026-04-16 11:11 51.25526 0.19624 4676 ft 287 kts 79°
2026-04-16 11:11 51.25910 0.22741 4653 ft 286 kts 79°
2026-04-16 11:12 51.26297 0.25861 4625 ft 287 kts 79°
2026-04-16 11:12 51.26685 0.28980 4615 ft 286 kts 79°
2026-04-16 11:12 51.27066 0.32096 4596 ft 287 kts 79°
2026-04-16 11:12 51.27612 0.35136 4587 ft 283 kts 61°
2026-04-16 11:13 51.28863 0.37517 4606 ft 283 kts 33°
2026-04-16 11:13 51.30604 0.38750 4624 ft 274 kts
2026-04-16 11:13 51.32448 0.38594 4651 ft 262 kts 338°
2026-04-16 11:13 51.34088 0.37348 4989 ft 265 kts 325°
2026-04-16 11:14 51.35669 0.35829 4987 ft 263 kts 325°
2026-04-16 11:14 51.37265 0.34391 4987 ft 264 kts 328°
2026-04-16 11:14 51.38914 0.33068 4984 ft 264 kts 330°
2026-04-16 11:14 51.40580 0.31850 4968 ft 264 kts 332°
2026-04-16 11:15 51.42271 0.30672 4972 ft 266 kts 333°
2026-04-16 11:15 51.43980 0.29494 5181 ft 269 kts 333°
2026-04-16 11:15 51.45718 0.28295 5673 ft 276 kts 333°
2026-04-16 11:15 51.47458 0.27095 5771 ft 268 kts 333°
2026-04-16 11:16 51.49174 0.25911 5886 ft 269 kts 333°
2026-04-16 11:16 51.50890 0.24721 6006 ft 269 kts 333°
2026-04-16 11:16 51.52612 0.23525 6110 ft 269 kts 332°
2026-04-16 11:16 51.54338 0.22326 6155 ft 270 kts 332°
2026-04-16 11:17 51.56063 0.21127 6154 ft 271 kts 332°
2026-04-16 11:17 51.57789 0.19925 6162 ft 271 kts 332°
2026-04-16 11:17 51.59519 0.18720 6151 ft 271 kts 332°
2026-04-16 11:17 51.61248 0.17515 6155 ft 270 kts 332°
2026-04-16 11:18 51.62973 0.16310 6145 ft 270 kts 332°
2026-04-16 11:18 51.64609 0.14855 6211 ft 269 kts 320°
2026-04-16 11:18 51.66010 0.12865 6747 ft 268 kts 309°
2026-04-16 11:18 51.67297 0.10706 7810 ft 267 kts 310°
2026-04-16 11:19 51.68609 0.08561 8804 ft 271 kts 311°
2026-04-16 11:19 51.69946 0.06385 9768 ft 275 kts 311°
2026-04-16 11:19 51.71305 0.04167 10590 ft 285 kts 311°
2026-04-16 11:19 51.72744 0.01800 10993 ft 307 kts 311°
2026-04-16 11:20 51.74292 -0.00753 11411 ft 326 kts 311°
2026-04-16 11:20 51.75895 -0.03388 12260 ft 330 kts 311°
2026-04-16 11:20 51.77505 -0.06035 13180 ft 332 kts 311°
2026-04-16 11:20 51.79135 -0.08721 14037 ft 336 kts 310°
2026-04-16 11:21 51.80776 -0.11431 14814 ft 339 kts 310°
2026-04-16 11:21 51.82427 -0.14159 15676 ft 339 kts 310°
2026-04-16 11:21 51.84081 -0.16898 16467 ft 342 kts 310°
2026-04-16 11:21 51.85750 -0.19665 17216 ft 346 kts 310°
2026-04-16 11:22 51.87435 -0.22461 17980 ft 348 kts 310°
2026-04-16 11:22 51.89131 -0.25280 18693 ft 351 kts 310°
2026-04-16 11:22 51.90842 -0.28127 19306 ft 355 kts 310°
2026-04-16 11:22 51.92573 -0.31011 19930 ft 358 kts 309°
2026-04-16 11:23 51.94316 -0.33918 20546 ft 362 kts 309°
2026-04-16 11:23 51.96076 -0.36858 21156 ft 365 kts 309°
2026-04-16 11:23 51.97852 -0.39828 21767 ft 368 kts 309°
2026-04-16 11:23 51.99642 -0.42825 22364 ft 372 kts 309°
2026-04-16 11:24 52.01453 -0.45859 22954 ft 376 kts 309°
2026-04-16 11:24 52.03279 -0.48924 23551 ft 379 kts 309°
2026-04-16 11:24 52.05122 -0.52022 23842 ft 382 kts 309°
2026-04-16 11:24 52.06958 -0.55107 23935 ft 379 kts 309°
2026-04-16 11:25 52.08793 -0.58196 24030 ft 380 kts 309°
2026-04-16 11:25 52.10629 -0.61293 24119 ft 381 kts 309°
2026-04-16 11:25 52.12467 -0.64398 24127 ft 380 kts 309°
2026-04-16 11:25 52.14301 -0.67499 24132 ft 380 kts 309°
2026-04-16 11:26 52.16110 -0.70563 24125 ft 381 kts 309°
2026-04-16 11:26 52.17942 -0.73668 24123 ft 381 kts 309°
2026-04-16 11:26 52.19775 -0.76779 24130 ft 380 kts 309°
2026-04-16 11:26 52.21634 -0.79940 24125 ft 381 kts 309°
2026-04-16 11:27 52.23479 -0.83036 24113 ft 382 kts 311°
2026-04-16 11:27 52.25522 -0.85842 24111 ft 386 kts 319°
2026-04-16 11:27 52.27781 -0.88247 24115 ft 390 kts 323°
2026-04-16 11:27 52.30101 -0.90529 24107 ft 388 kts 323°
2026-04-16 11:28 52.32403 -0.92819 24102 ft 388 kts 323°
2026-04-16 11:28 52.34674 -0.95089 24099 ft 388 kts 323°
2026-04-16 11:28 52.37009 -0.97423 24098 ft 388 kts 323°
2026-04-16 11:28 52.39283 -0.99697 24103 ft 388 kts 323°
2026-04-16 11:29 52.41627 -1.02042 24098 ft 390 kts 323°
2026-04-16 11:29 52.43906 -1.04323 23972 ft 389 kts 323°
2026-04-16 11:29 52.46221 -1.06643 23373 ft 392 kts 323°
2026-04-16 11:29 52.48565 -1.08998 22398 ft 398 kts 323°
2026-04-16 11:30 52.50944 -1.11392 21501 ft 401 kts 323°
2026-04-16 11:30 52.53308 -1.13770 20866 ft 397 kts 323°
2026-04-16 11:30 52.55650 -1.16127 20219 ft 393 kts 323°
2026-04-16 11:30 52.57968 -1.18465 19582 ft 389 kts 323°
2026-04-16 11:31 52.60263 -1.20780 19025 ft 383 kts 323°
2026-04-16 11:31 52.62499 -1.23037 18746 ft 371 kts 323°
2026-04-16 11:31 52.64662 -1.25221 18465 ft 359 kts 323°
2026-04-16 11:31 52.66756 -1.27342 18287 ft 350 kts 323°
2026-04-16 11:32 52.68862 -1.29491 18190 ft 359 kts 323°
2026-04-16 11:32 52.70986 -1.31659 18104 ft 357 kts 323°
2026-04-16 11:32 52.73095 -1.33807 18102 ft 357 kts 323°
2026-04-16 11:32 52.75210 -1.35964 18102 ft 358 kts 323°
2026-04-16 11:33 52.77324 -1.38120 18106 ft 356 kts 323°
2026-04-16 11:33 52.79429 -1.40269 18103 ft 356 kts 322°
2026-04-16 11:33 52.81539 -1.42426 18104 ft 356 kts 322°
2026-04-16 11:33 52.83643 -1.44580 18099 ft 356 kts 322°
2026-04-16 11:34 52.85748 -1.46738 18103 ft 356 kts 322°
2026-04-16 11:34 52.87852 -1.48895 17936 ft 355 kts 322°
2026-04-16 11:34 52.89955 -1.51057 17336 ft 358 kts 323°
2026-04-16 11:34 52.92093 -1.53259 16346 ft 365 kts 323°
2026-04-16 11:35 52.94251 -1.55482 15463 ft 362 kts 323°
2026-04-16 11:35 52.96347 -1.57632 14982 ft 347 kts 323°
2026-04-16 11:35 52.98365 -1.59705 14508 ft 334 kts 323°
2026-04-16 11:35 53.00330 -1.61731 13587 ft 335 kts 322°
2026-04-16 11:36 53.02342 -1.63825 12340 ft 345 kts 323°
2026-04-16 11:36 53.04336 -1.65994 11565 ft 338 kts 318°
2026-04-16 11:36 53.06054 -1.68431 11115 ft 320 kts 310°
2026-04-16 11:36 53.07543 -1.71163 10863 ft 321 kts 306°
2026-04-16 11:37 53.08995 -1.73997 10592 ft 322 kts 306°
2026-04-16 11:37 53.10443 -1.76786 10333 ft 312 kts 306°
2026-04-16 11:37 53.11823 -1.79433 10171 ft 294 kts 306°
2026-04-16 11:37 53.13108 -1.81918 9952 ft 279 kts 306°
2026-04-16 11:38 53.14366 -1.84359 9445 ft 272 kts 306°
2026-04-16 11:38 53.15579 -1.86718 9245 ft 269 kts 306°
2026-04-16 11:38 53.16799 -1.89107 9103 ft 271 kts 306°
2026-04-16 11:38 53.18018 -1.91487 8845 ft 269 kts 306°
2026-04-16 11:39 53.19232 -1.93857 8448 ft 270 kts 306°
2026-04-16 11:39 53.20443 -1.96224 8247 ft 265 kts 306°
2026-04-16 11:39 53.21646 -1.98574 8162 ft 267 kts 306°
2026-04-16 11:39 53.23036 -2.00639 8045 ft 275 kts 327°
2026-04-16 11:40 53.24900 -2.01542 7868 ft 287 kts 352°
2026-04-16 11:40 53.26889 -2.00993 7572 ft 296 kts 19°
2026-04-16 11:40 53.28679 -1.99276 7199 ft 297 kts 30°
2026-04-16 11:40 53.30416 -1.97418 6789 ft 296 kts 30°
2026-04-16 11:41 53.32131 -1.95575 6329 ft 290 kts 30°
2026-04-16 11:41 53.33775 -1.93810 6180 ft 270 kts 30°
2026-04-16 11:41 53.35334 -1.92119 6092 ft 270 kts 30°
2026-04-16 11:41 53.36922 -1.90402 5846 ft 271 kts 30°
2026-04-16 11:42 53.38581 -1.88990 5353 ft 266 kts
2026-04-16 11:42 53.40365 -1.88904 4733 ft 258 kts 341°
2026-04-16 11:42 53.41948 -1.90200 4233 ft 246 kts 320°
2026-04-16 11:42 53.43326 -1.91802 3968 ft 237 kts 320°
2026-04-16 11:43 53.44687 -1.93378 3706 ft 239 kts 320°
2026-04-16 11:43 53.46025 -1.94934 3548 ft 234 kts 319°
2026-04-16 11:43 53.47070 -1.96951 3492 ft 229 kts 289°
2026-04-16 11:43 53.47322 -1.99504 3490 ft 218 kts 265°
2026-04-16 11:44 53.47072 -2.01979 3492 ft 216 kts 243°
2026-04-16 11:44 53.46294 -2.04192 3491 ft 223 kts 239°
2026-04-16 11:44 53.45433 -2.06354 3338 ft 220 kts 235°
2026-04-16 11:44 53.44565 -2.08400 2952 ft 210 kts 233°
2026-04-16 11:45 53.43712 -2.10266 2674 ft 193 kts 232°
2026-04-16 11:45 53.42921 -2.11936 2413 ft 173 kts 232°
2026-04-16 11:45 53.42213 -2.13401 2216 ft 150 kts 231°
2026-04-16 11:45 53.41591 -2.14690 2022 ft 138 kts 230°
2026-04-16 11:46 53.40999 -2.15910 1850 ft 129 kts 231°
2026-04-16 11:46 53.40639 -2.16656 1729 ft 120 kts 231°
2026-04-16 11:46 53.40134 -2.17698 1570 ft 115 kts 231°
2026-04-16 11:46 53.39629 -2.18740 1409 ft 115 kts 231°
2026-04-16 11:47 53.39136 -2.19757 1250 ft 108 kts 231°
2026-04-16 11:47 53.38647 -2.20766 1092 ft 115 kts 232°
2026-04-16 11:47 53.38144 -2.21801 937 ft 116 kts 232°
2026-04-16 11:47 53.37626 -2.22877 765 ft 116 kts 230°
2026-04-16 11:48 53.37125 -2.23887 574 ft 113 kts 229°
2026-04-16 11:48 53.36594 -2.24985 430 ft 127 kts 229°
2026-04-16 11:48 53.36061 -2.26087 296 ft 114 kts 228°
2026-04-16 11:48 53.35646 -2.26932 265 ft 56 kts 232°
2026-04-16 11:49 53.35412 -2.27415 258 ft 57 kts 232°
2026-04-16 11:49 53.35255 -2.27884 246 ft 33 kts 257°
2026-04-16 11:49 53.35232 -2.28130 239 ft 0 kts 262°
2026-04-16 11:49 53.35232 -2.28135 238 ft 4 kts 262°
2026-04-16 11:50 53.35256 -2.28228 237 ft 10 kts 332°
2026-04-16 11:50 53.35331 -2.28199 236 ft 13 kts 19°
2026-04-16 11:50 53.35422 -2.28155 238 ft 15 kts 13°
2026-04-16 11:50 53.35528 -2.28089 239 ft 17 kts 39°
2026-04-16 11:51 53.35609 -2.27936 245 ft 16 kts 56°
2026-04-16 11:51 53.35681 -2.27783 247 ft 18 kts 50°
2026-04-16 11:51 53.35788 -2.27664 247 ft 20 kts
2026-04-16 11:51 53.35933 -2.27637 247 ft 20 kts
2026-04-16 11:52 53.36020 -2.27622 247 ft 1 kts
2026-04-16 11:52 53.36033 -2.27547 247 ft 10 kts 91°
2026-04-16 11:52 53.36030 -2.27500 247 ft 0 kts 96°